Location: Kiltepe
(36.4752°N, 30.0120°E)
Time: 13:47:46
(UTC+00:00)

Daily predictions for brighter satellites

Satellite Brightness Start Highest point End
(mag) Time Altitude Azimuth Time Altitude Azimuth Time Altitude Azimuth
Cosmos 1140 Rocket 3.5 15:18:37 10° S 15:23:43 63° ESE 15:28:50 10° NNE
Cosmos 1725 Rocket 4.3 15:18:58 10° S 15:25:12 78° W 15:31:30 10° N
Landsat 7 3.9 15:21:27 10° SSE 15:25:55 49° ENE 15:30:24 10° N
COSMO-SKYMED 1 3.8 15:25:51 10° NE 15:28:52 20° E 15:31:52 10° SE
Cosmos 2278 Rocket 3.1 15:24:11 10° SSE 15:28:56 29° ESE 15:33:42 10° NE
Cosmos 1025 Rocket 3.6 15:24:48 10° NNW 15:29:04 61° W 15:33:15 10° S
Cosmos 2221 Rocket 4.0 15:24:49 10° NNW 15:29:17 70° W 15:33:41 10° S
Cosmos 2233 Rocket 4.0 15:23:11 10° S 15:29:25 77° E 15:35:44 10° N
SL-12 R/B(2) 4.3 15:22:08 10° S 15:29:27 56° ESE 15:38:04 10° NE
CORIOLIS 4.2 15:25:14 10° SSE 15:30:36 85° E 15:36:00 10° NNW
MOS 1 Rocket 3.8 15:27:14 10° SE 15:30:55 29° ENE 15:34:40 10° N
NOSS 3-4 (A) 4.1 15:26:00 10° NNW 15:33:12 90° ENE 15:41:35 10° SSE
NOSS 3-4 (C) 4.1 15:26:04 10° NNW 15:33:16 89° ENE 15:41:38 10° SSE
Helios 1A Rocket 3.8 15:31:34 10° NE 15:34:11 21° E 15:36:47 10° SSE
ATLAS CENTAUR R/B 3.8 15:35:06 10° WNW 15:36:02 11° NW 15:36:58 10° NNW
Tiangong -2.1 15:34:46 10° WNW 15:37:56 87° SSW 15:41:06 10° ESE
YAOGAN 1 3.9 15:36:13 10° ESE 15:39:08 18° ENE 15:42:04 10° NNE
Cosmos 1812 3.7 15:37:26 10° SE 15:39:15 15° E 15:39:40 15° E
Cosmos 1943 Rocket 2.7 15:34:26 10° S 15:39:34 37° ESE 15:44:41 10° NE
ISS -3.6 15:36:37 10° SW 15:39:54 59° SE 15:42:33 15° ENE
CZ-2D R/B 2.6 15:38:26 10° SSE 15:41:35 83° ENE 15:44:46 10° N
Geosat FO 4.4 15:40:50 10° SE 15:43:37 41° ENE 15:46:22 10° N
ARIANE 5 R/B 2.5 15:41:31 10° SSE 15:46:29 86° WSW 15:51:29 10° NNW
IRS-1C 4.2 15:45:13 10° SSE 15:50:32 82° WSW 15:55:53 10° NNW
AQUARIUS 4.0 15:50:08 10° SSE 15:54:32 83° ENE 15:58:57 10° N
PSLV R/B 4.2 15:55:48 10° SE 15:59:16 28° ENE 16:02:45 10° NNE
BREEZE-M DEB (TANK) 4.4 15:59:33 10° WNW 16:01:26 20° NNW 16:04:23 11° NNE
SJ 16-02 2.7 16:00:18 10° SE 16:02:46 19° ESE 16:02:46 19° ESE
Cosmos 1869 2.8 15:59:55 10° S 16:03:27 77° E 16:06:59 10° N
SPOT 1/Viking Rocket 3.6 15:59:15 10° SSE 16:04:13 53° ENE 16:09:15 10° N
Delta 2 Rocket 3.9 16:00:56 10° W 16:04:50 50° SSW 16:07:34 18° SE
Tsikada Rocket 4.4 16:00:59 10° NNW 16:07:21 71° W 16:13:39 10° S
USA 215 3.8 16:06:32 10° SSE 16:12:58 62° SW 16:19:27 10° NW
CZ-2D R/B 3.3 16:10:45 10° SSE 16:14:44 65° ENE 16:18:51 10° N
SL-19 R/B 4.2 16:11:49 10° SE 16:16:54 50° ENE 16:21:55 10° N
Cosmos 1833 Rocket 2.7 16:11:19 10° NNW 16:16:59 84° WSW 16:22:37 10° SSE
OAO 3 Rocket 3.5 16:14:45 10° WSW 16:19:13 49° SSE 16:20:54 32° ESE
RESURS DK-1 4.3 16:17:40 10° N 16:18:37 15° NNE 16:18:37 15° NNE
Cosmos 407 Rocket 3.6 16:16:26 10° SSW 16:21:38 74° WNW 16:26:49 10° NNE
Cosmos 2151 Rocket 3.7 16:19:16 10° SSE 16:23:32 48° E 16:25:26 29° NE
OAO 3 Copernicus 4.3 16:20:44 10° W 16:25:46 77° S 16:27:43 38° ESE
Cosmos 1513 Rocket 4.5 16:20:21 10° S 16:26:38 89° ESE 16:33:04 10° N
Spot 4 Rocket 3.9 16:24:44 10° SSE 16:29:49 80° ENE 16:34:55 10° N
SL-4 R/B 2.3 16:30:10 10° WNW 16:33:37 53° SW 16:34:57 33° SSE
Cosmos 1975 Rocket 4.3 16:32:15 10° NNW 16:36:21 42° W 16:40:27 10° SSW
OAO 2 Rocket 3.3 16:32:39 10° WSW 16:37:43 73° S 16:39:01 49° ESE
Aureole 3 Rocket 3.7 16:38:00 10° SSW 16:41:09 38° W 16:42:46 21° NNW
IRAS Rocket 4.3 16:36:52 10° SSE 16:42:28 81° WSW 16:48:02 10° NNW
Okean 1 Rocket 4.4 16:41:58 10° S 16:44:05 27° SSE 16:44:05 27° SSE
Cosmos 44 Rocket 3.5 16:41:41 10° SW 16:46:22 67° WNW 16:48:13 36° NNE
Timation 1 Rocket 4.3 16:42:40 10° NNW 16:48:35 61° ENE 16:49:55 49° ESE
Nadezhda 4 Rocket 3.9 16:43:16 10° N 16:49:32 65° E 16:55:41 10° SSE
NOAA 6 3.9 16:48:49 10° SSE 16:53:58 86° ENE 16:59:08 10° NNW
ATLAS 5 CENTAUR R/B 2.1 16:49:45 10° NW 16:54:33 76° WSW 16:57:46 27° SSE
USA 281 3.8 17:03:18 37° NNE 17:03:18 37° NNE 17:07:53 10° N
Cosmos 2251 Rocket 4.1 16:58:40 10° SSW 17:03:48 57° WNW 17:06:37 26° N
COSMO-SKYMED 1 4.4 17:00:38 10° NNW 17:04:10 28° WNW 17:07:40 10° SW
Cosmos 1763 Rocket 3.8 16:59:53 10° NNW 17:05:02 65° WSW 17:08:54 17° S
Cosmos 540 Rocket 3.7 17:06:44 10° NNW 17:11:49 67° WSW 17:12:44 55° SSW
Cosmos 2278 Rocket 3.6 17:07:40 10° SW 17:12:48 35° WNW 17:16:58 15° N
Cosmos 1428 Rocket 4.3 17:06:35 10° N 17:12:53 83° E 17:19:11 10° S
Tiangong 1.1 17:12:38 10° WSW 17:13:28 13° WSW 17:13:28 13° WSW
YAOGAN 1 4.2 17:10:54 10° SSW 17:14:43 33° W 17:18:34 10° NNW
Cosmos 2082 Rocket 3.3 17:09:10 10° NNW 17:12:08 31° N 17:12:08 31° N
ISS -0.7 17:14:35 10° WNW 17:15:30 14° WNW 17:15:30 14° WNW
Geosat 4.2 17:18:35 66° W 17:18:35 66° W 17:23:21 10° NNW
Okean 2 Rocket 4.2 17:15:22 10° SSW 17:18:52 42° WSW 17:18:52 42° WSW
Cosmos 1943 Rocket 4.0 17:18:35 10° WSW 17:23:18 27° WNW 17:27:15 13° N
Cosmos 2034 Rocket 4.5 17:28:55 10° SSW 17:34:56 56° W 17:39:22 19° N
SJ 16-02 3.6 17:37:29 10° SW 17:39:23 21° WSW 17:39:23 21° WSW
